OneWeb SL0455

operational
NORAD ID: 51645 Int'l Des: 2022-012 Owner: ONEWEBN Country: UK Constellation: oneweb
LEOCIRCULARPOLAR

关于 OneWeb SL0455

正在加载描述...

实时位置

正在加载3D地球...

即将过境

高度历史

Altitude vs Time

uPlot chart will show altitude changes over time

两行轨道根数

1 51645U 22012Z 25353.95302924 .00000232 00000-0 94023-4 0 9999
2 51645 87.5296 322.8823 0017450 12.8809 347.2824 14.23532277200641
Epoch: Dec 19, 2025 • Age: 12 hours

当前状态

高度 827.6 km
速度 7.44 km/s
星下点 52.12°N, 118.92°W
发射日期 Feb 10, 2022
运行时间 3.8 years
类型 internet

技术详情

分类 Payload
质量 148.00 kg
干质量 140.00 kg
总质量 148.00 kg
长度 1.30 m
直径 1.00 m
跨度 5.00 m
形状 Trapezoid+2 pan
制造商 ONEWUS
平台类型 ARROW
阶段状态 In Orbit
所有者/国家 ONEWEBN/UK

大型星座

Loading constellations...